Location: Utrecht
(52.0917°N, 5.1178°E)
Time: 02:48:06
(UTC+02:00)

X-37B - Pass Details

Date: 25 June 2021
Orbit: 383 x 392 km, 45.0° (Epoch: 01 July)

Event Time Altitude Azimuth Distance (km) Brightness Sun altitude
Rises 00:43:49 0° 249° (WSW) 2,255 4.4 -13.4°
Reaches altitude 10° 00:46:08 10° 234° (SW) 1,402 3.2 -13.5°
Enters shadow 00:47:21 17° 216° (SW) 1,047 2.4 -13.6°
